This is the latest recevied weather packets stored in our database for station/object DB8NZ-22. If no packets are shown the sender has not sent any weather packets the latest 10 day(s).
| Time | Temp. | Humidity | Pressure | Rain* | Wind** | Luminosity | Snow |
|---|---|---|---|---|---|---|---|
| 1788531528 | 37.22° C | 26% | 1012.9 hPa | - | - | - | - |
| 1788530644 | 36.67° C | 27% | 1013.1 hPa | - | - | - | - |
| 1788529728 | 35.56° C | 27% | 1013.5 hPa | - | - | - | - |
| 1788528827 | 36.11° C | 27% | 1013.5 hPa | - | - | - | - |
| 1788527927 | 35° C | 28% | 1013.6 hPa | - | - | - | - |
| 1788527027 | 35° C | 29% | 1013.8 hPa | - | - | - | - |
| 1788526127 | 34.44° C | 29% | 1014 hPa | - | - | - | - |
| 1788525227 | 33.33° C | 30% | 1014.1 hPa | - | - | - | - |
| 1788524327 | 33.33° C | 31% | 1014.6 hPa | - | - | - | - |
| 1788523427 | 32.22° C | 33% | 1014.8 hPa | - | - | - | - |
| 1788522527 | 31.11° C | 34% | 1015.1 hPa | - | - | - | - |
| 1788521627 | 31.11° C | 34% | 1015.2 hPa | - | - | - | - |
| 1788520726 | 30.56° C | 36% | 1015.3 hPa | - | - | - | - |
| 1788519826 | 30° C | 37% | 1015.5 hPa | - | - | - | - |
| 1788518926 | 30° C | 37% | 1015.8 hPa | - | - | - | - |
| 1788518026 | 30° C | 39% | 1015.7 hPa | - | - | - | - |
| 1788517126 | 29.44° C | 39% | 1016 hPa | - | - | - | - |
| 1788516226 | 29.44° C | 40% | 1016.2 hPa | - | - | - | - |
| 1788515326 | 28.33° C | 42% | 1016.3 hPa | - | - | - | - |
| 1788514426 | 28.33° C | 42% | 1016.6 hPa | - | - | - | - |
| 1788513526 | 27.78° C | 44% | 1017 hPa | - | - | - | - |
| 1788512626 | 27.22° C | 45% | 1017.3 hPa | - | - | - | - |
| 1788511755 | 26.67° C | 46% | 1017.3 hPa | - | - | - | - |
| 1788510826 | 25.56° C | 48% | 1017.5 hPa | - | - | - | - |
| 1788509925 | 25° C | 49% | 1017.6 hPa | - | - | - | - |
* Rain since midnight (hover to see other rain measurements)
** Current wind speed in m/s (hover to see current wind gust speed)